Regional Weather Roundup
Issued by NWS

Home | Current Version | Previous Version | Graphics & Text | Print | Product List | Glossary On
Versions: 1 2 3 4 5 6 7 8 9 10 11 12 13 14 15 16 17 18 19 20 21 22 23 24 25 26 27 28 29 30 31 32 33 34 35 36 37 38 39 40 41 42 43 44 45 46 47 48 49 50
000
ASUS43 KOAX 241610
RWRNE

WEATHER ROUNDUP FOR NEBRASKA
NATIONAL WEATHER SERVICE OMAHA NE
1100 AM CDT FRI MAR 24 2017

NOTES: SATELLITE DATA IS BEING USED TO AUGMENT CLOUD COVER ABOVE
       12000 FEET.
       "FAIR" INDICATES FEW OR NO CLOUDS BELOW 12,000 FEET WITH NO
       SIGNIFICANT WEATHER AND/OR OBSTRUCTIONS TO VISIBILITY.

  * THESE STATIONS DO NOT REPORT WEATHER SUCH AS RAIN...SNOW OR FOG.

NEZ001>004-019>022-054>056-241700-
NEBRASKA PANHANDLE

CITY           SKY/WX    TMP DP  RH WIND       PRES   REMARKS
SCOTTSBLUFF    CLOUDY    47  36  65 N18       30.09S
CHADRON        CLOUDY    47  37  68 VRB5      30.12S
KIMBALL        CLOUDY    42  39  88 N29G35    30.05R
SIDNEY         CLOUDY    41  37  86 N29G36    30.03R
$$

NEZ057>060-069>072-079>082-241700-
SOUTHWEST NEBRASKA

CITY           SKY/WX    TMP DP  RH WIND       PRES   REMARKS
NORTH PLATTE   LGT RAIN  43  39  86 NE31G37   29.91R
IMPERIAL       CLOUDY    43  39  86 N31G46    29.91R
LEXINGTON      LGT RAIN  41  38  90 N26G40    29.89F
MCCOOK         LGT RAIN  41  40  96 NE26G40   29.85R FOG
OGALLALA       CLOUDY    45  41  86 N25G33    29.96R
$$

NEZ005>010-023>029-035>040-094-241700-
NORTH CENTRAL NEBRASKA

CITY           SKY/WX    TMP DP  RH WIND       PRES   REMARKS
VALENTINE      CLOUDY    45  36  70 N16       30.06R
AINSWORTH      CLOUDY    40  39  97 N18G28    30.02S WCI  31
BROKEN BOW     LGT RAIN  40  38  93 N20G33    29.96R WCI  30
O`NEILL        CLOUDY    38  37  97 N16G26    30.00S WCI  29
ORD            LGT RAIN  40  36  86 N22G31    29.96R WCI  30
THEDFORD       LGT RAIN  41  38  91 N15G28    30.01S
$$

NEZ041-046>049-061>064-073>077-083>087-241700-
SOUTH CENTRAL NEBRASKA

CITY           SKY/WX    TMP DP  RH WIND       PRES   REMARKS
GRAND ISLAND   CLOUDY    41  41 100 N23       29.92R FOG
AURORA         CLOUDY    42  41  95 N24       29.91R
HASTINGS       CLOUDY    44  40  85 N22G30    29.91R
HEBRON         LGT RAIN  50  48  93 NE21G28   29.84R
HOLDREGE       CLOUDY    41  38  91 N24G36    29.89R
KEARNEY *      CLOUDY    39  36  87 N21G28    29.92R WCI  29
YORK           CLOUDY    45  43  93 N23G29    29.90R
$$

NEZ011>018-030>034-042>045-241700-
NORTHEAST NEBRASKA

CITY           SKY/WX    TMP DP  RH WIND       PRES   REMARKS
NORFOLK        CLOUDY    40  37  89 N15       29.95R WCI  32
ALBION         DRIZZLE   41  38  88 N17       29.96R
BLAIR          CLOUDY    46  44  95 N18       29.88R FOG
FREMONT        LGT RAIN  44  44  97 N10G16    29.92R
TEKAMAH        LGT RAIN  44  41  89 N16       29.93R FOG
WAYNE          CLOUDY    41  40  96 N20       29.95R
$$

NEZ050>053-065>068-078-088>093-241700-
SOUTHEAST NEBRASKA

CITY           SKY/WX    TMP DP  RH WIND       PRES   REMARKS
LINCOLN        CLOUDY    48  45  89 N21G26    29.90R
OMAHA EPPLEY   CLOUDY    49  44  83 N16       29.89R
BEATRICE       CLOUDY    54  52  94 N18G24    29.84R FOG
FALLS CITY     LGT RAIN  58  57  97 SE3       29.85R
NEBRASKA CITY  LGT RAIN  56  55  96 NE6       29.85R
PLATTSMOUTH    CLOUDY    50  47  90 N7        29.88R FOG
$$

NEZ044-045-051>053-067-241700-
OMAHA AREA

CITY           SKY/WX    TMP DP  RH WIND       PRES   REMARKS
OMAHA EPPLEY   CLOUDY    49  44  83 N16       29.89R
BLAIR          CLOUDY    46  44  95 N18       29.88R FOG
FREMONT        LGT RAIN  44  44  97 N10G16    29.92R
MILLARD        CLOUDY    50  47  92 N7        29.89R
OFFUTT AFB     CLOUDY    50  47  91 N13       29.88R
PLATTSMOUTH    CLOUDY    50  47  90 N7        29.88R FOG
WAHOO          CLOUDY    46  43  92 N16G22    29.91R
$$



USA.gov is the U.S. government's official web portal to all federal, state and local government web resources and services.